Simultaneous Nadir Overpasses (SNOs) Predictions

Prediction of SNOs between GOES-16 and NOAA-20 Satellite Orbit:

Table of predicted SNOs for the next 14.0 days since TLE Epoch: 2/17/2024
Index Date Time (GOES-16) GOES-16 Lat,Lon NOAA-20 Lat,Lon Distance(km) Time Diff (sec)
1 02/17/2024 18:17:12 0.07, -75.21 0.64, -72.73 283.13 80
2 02/19/2024 06:38:59 -0.06, -75.22 0.57, -77.99 316.26 80
3 02/20/2024 06:17:35 -0.06, -75.22 -0.46, -73.46 200.89 80
4 02/21/2024 18:39:31 0.05, -75.23 -0.74, -78.76 402.09 80
5 02/22/2024 18:23:27 0.05, -75.25 0.28, -74.23 115.76 80
6 02/24/2024 06:45:14 -0.04, -75.27 0.91, -79.49 481.67 80
7 02/25/2024 06:23:49 -0.04, -75.28 -0.12, -74.97 36.48 80
8 02/27/2024 18:27:01 0.04, -75.33 -0.03, -75.74 46.55 80
9 02/28/2024 18:10:56 0.04, -75.35 0.94, -71.20 472.30 80
10 03/01/2024 06:32:44 -0.04, -75.38 0.18, -76.48 123.90 80
